Regional Weather Roundup
Issued by NWS

Home | Current Version | Previous Version | Graphics & Text | Print | Product List | Glossary On
Versions: 1 2 3 4 5 6 7 8 9 10 11 12 13 14 15 16 17 18 19 20 21 22 23 24 25 26 27 28 29 30 31 32 33 34 35 36 37 38 39 40 41 42 43 44 45 46 47 48 49 50
000
ASUS43 KLOT 212200
RWRIL

ILLINOIS REGIONAL WEATHER ROUNDUP
NATIONAL WEATHER SERVICE CHICAGO/ROMEOVILLE IL
500 PM CDT SUN SEP 21 2014

NOTE: "FAIR" INDICATES FEW OR NO CLOUDS BELOW 12,000 FEET WITH NO
SIGNIFICANT WEATHER AND/OR OBSTRUCTIONS TO VISIBILITY.

* THESE STATIONS ARE NOT UNDER NWS QUALITY CONTROL. THEY ALSO MAY NOT
  REPORT WEATHER SUCH AS PRECIPITATION OR FOG.

ILZ001-002-007-009-015-016-024-212300-
NORTHWEST ILLINOIS

CITY           SKY/WX    TMP DP  RH WIND       PRES   REMARKS
MOLINE         PTSUNNY   64  50  60 NW12      30.08R
STERLING*      PTSUNNY   66  52  59 NW15      30.04R
$$

ILZ003-004-008-010-011-017-018-212300-
NORTH CENTRAL ILLINOIS

CITY           SKY/WX    TMP DP  RH WIND       PRES   REMARKS
ROCKFORD       MOSUNNY   66  48  52 N16       30.03R
$$

ILZ005-006-012>014-019>023-212300-
NORTHEAST ILLINOIS

CITY           SKY/WX    TMP DP  RH WIND       PRES   REMARKS
CHICAGO-OHARE  PTSUNNY   65  49  56 NE10      29.99R
CHICAGO-MIDWAY PTSUNNY   64  52  64 NE15      29.98R
AURORA         MOSUNNY   67  49  52 NW17G23   30.00R
WAUKEGAN       CLOUDY    57  50  77 N13G18    29.99R
DUPAGE AIRPORT PTSUNNY   65  50  58 NW13      29.99R
WHEELING       PTSUNNY   61  50  67 NE13      30.00R
NORTHERLY ISL    N/A     61  52  72 N12         N/A
$$

LMZ740>746-212300-
SOUTHERN LAKE MICHIGAN

STATION/POSITION SKY/WX   TEMP    WIND        PRES    VSBY  WAVE
                          AIR SEA DIR/SP/G                  HT/PER
                          (F)     (DEG/KT/KT) (MB)    (MI)  (FT/S)
SOUTHERN BUOY              58 62  340/ 23/ 27 1014.0R         9/ 8
WAUKEGAN HARBOR            56      20/ 14/ 17   N/A
HARRISON CRIB              60      10/ 19/ 22   N/A
BURNHAM HARBOR             60     330/ 13/ 13   N/A
CALUMET HARBOR             61     350/ 11/ 15 1014.1R
MICHIGAN CITY              60     330/ 26/ 30   N/A
MICHIGAN CITY 6N           60 64   10/ 17/ 25   N/A           9/ 7
ST. JOSEPH                 59 65  360/ 21/ 29   N/A          10/ 7
$$

ILZ025>027-034>036-040-047-049-050-058-095>099-212300-
WEST-CENTRAL ILLINOIS

CITY           SKY/WX    TMP DP  RH WIND       PRES   REMARKS
QUINCY         SUNNY     68  49  50 N13       30.09R
$$

ILZ028>032-037-038-041>044-048-051>054-059>061-212300-
CENTRAL ILLINOIS

CITY           SKY/WX    TMP DP  RH WIND       PRES   REMARKS
DECATUR        CLOUDY    67  50  54 NW18G25   30.04R
PEORIA         PTSUNNY   68  50  52 NW10G21   30.06R
SPRINGFIELD    PTSUNNY   71  50  47 NW15G24   30.05R
TAYLORVILLE    NOT AVBL
$$

ILZ033-039-045-046-055>057-062-063-212300-
EAST-CENTRAL ILLINOIS

CITY           SKY/WX    TMP DP  RH WIND       PRES   REMARKS
CHAMPAIGN      CLOUDY    65  50  58 NW17G23   30.03R
MATTOON        LGT RAIN  68  48  48 N21G26    30.00R
$$

ILZ079-100>102-212300-
SOUTHWEST ILLINOIS

CITY           SKY/WX    TMP DP  RH WIND       PRES   REMARKS
BELLEVILLE     MOSUNNY   75  50  42 W9G21     30.02R
CAHOKIA*       MOSUNNY   76  48  37 NW17G26   30.04R
$$

ILZ064>066-069>071-074>076-080>082-084>086-088>090-092>094-212300-
SOUTH-CENTRAL ILLINOIS

CITY           SKY/WX    TMP DP  RH WIND       PRES   REMARKS
CARBONDALE     SUNNY     78  47  33 NW15G21   30.00R
MARION         SUNNY     79  46  31 NW17      30.00S
MT. VERNON     SUNNY     75  48  38 NW3       30.01R
$$

ILZ067-068-072-073-078-083-087-091-212300-
SOUTHEAST ILLINOIS

CITY           SKY/WX    TMP DP  RH WIND       PRES   REMARKS
LAWRENCEVILLE  MOSUNNY   76  48  37 NW17G23   29.97R
$$

ABBREVIATIONS USED IN REMARKS
   TC - TEMPERATURE IN CELSIUS
  WCI - WIND CHILL INDEX
   HX - HEAT INDEX
  VSB - VISIBILITY
$$



USA.gov is the U.S. government's official web portal to all federal, state and local government web resources and services.